Hourly Data Report for June 06, 2017

FISHER BRANCH (AUT)
MANITOBA

51°05'00.100" N
97°33'16.200" W
253.00 m
50309J6
71442
WSZ

Download Data

Hourly Data (June 2017)
Hourly Data Report for June 6, 2017
TIME
LST
Temp Definition
°C
Dew Point Definition
°C
Rel Hum Definition
%
Precip. Amount Definition
mm

Wind Dir Definition
10's deg

Wind Spd Definition
km/h
Visibility Definition
km
Stn Press Definition
kPa
Hmdx Definition


Wind Chill Definition


Weather Definition


00:00 17.5 13.1 75 0.0 13 14   98.45     LegendNANA
01:00 18.0 12.9 72 0.0 14 13   98.47     LegendNANA
02:00 18.4 12.9 70 0.0 15 15   98.47     LegendNANA
03:00 17.7 12.3 71 0.0 15 13   98.43     LegendNANA
04:00 17.1 11.5 70 0.0 15 14   98.40     LegendNANA
05:00 17.1 11.4 69 0.0 15 16   98.39     LegendNANA
06:00 19.1 11.7 62 0.0 16 16   98.37     LegendNANA
07:00 20.6 12.0 58 0.0 16 15   98.35     LegendNANA
08:00 22.8 12.0 50 0.0 17 19   98.36 25   LegendNANA
09:00 24.4 12.0 46 0.0 17 21   98.31 27   LegendNANA
10:00 25.2 12.2 44 0.0 18 23   98.30 28   LegendNANA
11:00 26.6 13.7 45 0.0 19 20   98.29 30   LegendNANA
12:00 27.8 14.2 43 0.0 18 20   98.27 31   LegendNANA
13:00 24.8 15.0 55 0.0 24 22   98.29 29   LegendNANA
14:00 25.4 15.1 53 0.0 22 18   98.30 29   LegendNANA
15:00 25.3 15.4 54 0.0 25 18   98.31 30   LegendNANA
16:00 25.4 16.0 56 0.0 22 14   98.32 30   LegendNANA
17:00 26.1 16.1 54 0.0 22 12   98.31 31   LegendNANA
18:00 25.1 16.3 58 0.0 23 14   98.31 30   LegendNANA
19:00 23.6 17.3 68 0.0 25 12   98.34 29   LegendNANA
20:00 21.3 16.3 73 0.0 30 15   98.39 26   LegendNANA
21:00 17.8 14.3 80 0.0 29 17   98.47     LegendNANA
22:00 16.0 13.7 87 0.0 28 17   98.52     LegendNANA
23:00 16.3 14.3 88 0.0 28 13   98.52     LegendNANA

Notes on Data Quality.

Legend

  • E = Estimated
  • M = Missing
  • NA = Not Available*
  • [empty] = Indicates an unobserved value
Date modified: